Location: ???????
(55.3754°N, 39.3545°E)
Time: 21:50:00
(UTC+00:00)

NOSS 2-1 (D) - Pass Details

Date: 14 April 2026
Orbit: 373 x 1667 km, 63.3° (Epoch: 11 May)

Event Time Altitude Azimuth Distance (km) Brightness Sun altitude
Rises 17:14:31 0° 308° (NW) 2,248 8.6 -7.2°
Reaches altitude 10° 17:16:29 10° 317° (NW) 1,423 6.9 -7.4°
Maximum altitude 17:19:24 42° 30° (NNE) 622 3.6 -7.8°
Drops below altitude 10° 17:22:50 10° 103° (ESE) 1,678 5.2 -8.2°
Enters shadow 17:22:50 10° 103° (ESE) 1,682 5.2 -8.2°
